Time,TemperatureF,DewpointF,PressureIn,WindDirection,WindDirectionDegrees,WindSpeedMPH,WindSpeedGustMPH,Humidity,HourlyPrecipIn,Conditions,Clouds,dailyrainin,SoftwareType,DateUTC
2013-10-05 00:05:00,76.6,73.1,29.90,SE,127,1.0,1.0,89,0.00,,,0.00,Wunderground v.1.15,2013-10-05 05:05:00,
2013-10-05 00:14:00,76.6,73.4,29.90,NW,305,0.0,2.0,90,0.00,,,0.00,Wunderground v.1.15,2013-10-05 05:14:00,
2013-10-05 00:20:00,76.6,73.4,29.90,ESE,122,1.0,1.0,90,0.00,,,0.00,Wunderground v.1.15,2013-10-05 05:20:00,
2013-10-05 00:29:00,76.6,73.4,29.90,ENE,76,1.0,1.0,90,0.00,,,0.00,Wunderground v.1.15,2013-10-05 05:29:00,
2013-10-05 00:35:00,76.5,73.3,29.90,SE,132,1.0,1.0,90,0.00,,,0.00,Wunderground v.1.15,2013-10-05 05:35:00,
2013-10-05 00:45:00,76.5,73.3,29.90,East,91,1.0,1.0,90,0.00,,,0.00,Wunderground v.1.15,2013-10-05 05:45:00,
2013-10-05 00:54:00,76.4,73.6,29.89,ENE,58,1.0,1.0,91,0.00,,,0.00,Wunderground v.1.15,2013-10-05 05:54:00,
2013-10-05 01:00:00,76.3,73.5,29.89,ESE,121,1.0,2.0,91,0.00,,,0.00,Wunderground v.1.15,2013-10-05 06:00:00,
2013-10-05 01:10:00,76.2,73.4,29.89,ESE,103,1.0,1.0,91,0.00,,,0.00,Wunderground v.1.15,2013-10-05 06:10:00,
2013-10-05 01:14:00,76.2,73.4,29.89,South,172,1.0,1.0,91,0.00,,,0.00,Wunderground v.1.15,2013-10-05 06:14:00,
2013-10-05 01:24:00,76.2,73.4,29.89,WNW,285,0.0,1.0,91,0.00,,,0.00,Wunderground v.1.15,2013-10-05 06:24:00,
2013-10-05 01:35:00,76.1,73.6,29.89,SE,141,1.0,1.0,92,0.00,,,0.00,Wunderground v.1.15,2013-10-05 06:35:00,
2013-10-05 01:44:00,76.1,73.6,29.89,SE,134,0.0,1.0,92,0.00,,,0.00,Wunderground v.1.15,2013-10-05 06:44:00,
2013-10-05 01:50:00,76.0,73.5,29.89,WNW,287,0.0,3.0,92,0.00,,,0.00,Wunderground v.1.15,2013-10-05 06:50:00,
2013-10-05 01:59:00,76.0,73.5,29.89,East,86,1.0,2.0,92,0.00,,,0.00,Wunderground v.1.15,2013-10-05 06:59:00,
2013-10-05 02:05:00,76.0,73.5,29.89,East,101,1.0,2.0,92,0.00,,,0.00,Wunderground v.1.15,2013-10-05 07:05:00,
2013-10-05 02:15:00,75.9,73.4,29.89,East,96,0.0,1.0,92,0.00,,,0.00,Wunderground v.1.15,2013-10-05 07:15:00,
2013-10-05 02:24:00,75.8,73.6,29.88,West,274,0.0,0.0,93,0.00,,,0.00,Wunderground v.1.15,2013-10-05 07:24:00,
2013-10-05 02:30:00,75.8,73.6,29.88,SE,145,0.0,0.0,93,0.00,,,0.00,Wunderground v.1.15,2013-10-05 07:30:00,
2013-10-05 02:40:00,75.7,73.5,29.88,East,98,0.0,0.0,93,0.00,,,0.00,Wunderground v.1.15,2013-10-05 07:40:00,
2013-10-05 02:49:00,75.5,73.3,29.88,SE,125,0.0,0.0,93,0.00,,,0.00,Wunderground v.1.15,2013-10-05 07:49:00,
2013-10-05 02:55:00,75.5,73.3,29.88,SE,130,0.0,0.0,93,0.00,,,0.00,Wunderground v.1.15,2013-10-05 07:55:00,
2013-10-05 03:05:00,75.5,73.7,29.88,SSE,165,0.0,0.0,94,0.00,,,0.00,Wunderground v.1.15,2013-10-05 08:05:00,
2013-10-05 03:14:00,75.5,73.7,29.88,SW,236,0.0,0.0,94,0.00,,,0.00,Wunderground v.1.15,2013-10-05 08:14:00,
2013-10-05 03:20:00,75.5,73.7,29.89,SSW,206,0.0,0.0,94,0.00,,,0.00,Wunderground v.1.15,2013-10-05 08:20:00,
2013-10-05 03:30:00,75.5,73.7,29.89,SW,233,0.0,0.0,94,0.00,,,0.00,Wunderground v.1.15,2013-10-05 08:30:00,
2013-10-05 03:39:00,75.6,73.8,29.89,East,89,0.0,0.0,94,0.00,,,0.00,Wunderground v.1.15,2013-10-05 08:39:00,
2013-10-05 03:44:00,75.6,73.8,29.88,NW,304,0.0,1.0,94,0.00,,,0.00,Wunderground v.1.15,2013-10-05 08:44:00,
2013-10-05 03:55:00,75.6,73.8,29.88,WNW,290,0.0,0.0,94,0.00,,,0.00,Wunderground v.1.15,2013-10-05 08:55:00,
2013-10-05 04:04:00,75.6,73.4,29.88,South,191,0.0,0.0,93,0.00,,,0.00,Wunderground v.1.15,2013-10-05 09:04:00,
2013-10-05 04:10:00,75.5,73.7,29.88,ESE,117,0.0,0.0,94,0.00,,,0.00,Wunderground v.1.15,2013-10-05 09:10:00,
2013-10-05 04:20:00,75.4,73.6,29.88,East,96,0.0,0.0,94,0.00,,,0.00,Wunderground v.1.15,2013-10-05 09:20:00,
2013-10-05 04:29:00,75.3,73.5,29.88,East,95,0.0,0.0,94,0.00,,,0.00,Wunderground v.1.15,2013-10-05 09:29:00,
2013-10-05 04:34:00,75.3,73.5,29.88,ENE,65,0.0,0.0,94,0.00,,,0.00,Wunderground v.1.15,2013-10-05 09:34:00,
2013-10-05 04:45:00,75.2,73.4,29.88,ESE,106,0.0,0.0,94,0.00,,,0.00,Wunderground v.1.15,2013-10-05 09:45:00,
2013-10-05 04:55:00,75.1,73.3,29.88,SW,214,0.0,0.0,94,0.00,,,0.00,Wunderground v.1.15,2013-10-05 09:55:00,
2013-10-05 05:04:00,74.9,73.1,29.88,East,100,0.0,1.0,94,0.00,,,0.00,Wunderground v.1.15,2013-10-05 10:04:00,
2013-10-05 05:10:00,74.8,73.0,29.88,SE,127,0.0,0.0,94,0.00,,,0.00,Wunderground v.1.15,2013-10-05 10:10:00,
2013-10-05 05:20:00,74.6,73.1,29.88,SSE,167,0.0,0.0,95,0.00,,,0.00,Wunderground v.1.15,2013-10-05 10:20:00,
2013-10-05 05:30:00,74.4,72.9,29.88,ESE,115,0.0,1.0,95,0.00,,,0.00,Wunderground v.1.15,2013-10-05 10:30:00,
2013-10-05 05:39:00,74.2,72.7,29.89,WSW,248,0.0,0.0,95,0.00,,,0.00,Wunderground v.1.15,2013-10-05 10:39:00,
2013-10-05 05:45:00,74.1,72.6,29.89,ESE,111,0.0,0.0,95,0.00,,,0.00,Wunderground v.1.15,2013-10-05 10:45:00,
2013-10-05 05:54:00,73.9,72.7,29.89,ESE,111,0.0,0.0,96,0.00,,,0.00,Wunderground v.1.15,2013-10-05 10:54:00,
2013-10-05 06:00:00,73.9,72.7,29.89,ESE,111,0.0,0.0,96,0.00,,,0.00,Wunderground v.1.15,2013-10-05 11:00:00,
2013-10-05 06:10:00,73.8,72.6,29.89,ESE,111,0.0,0.0,96,0.00,,,0.00,Wunderground v.1.15,2013-10-05 11:10:00,
2013-10-05 06:19:00,73.6,72.4,29.89,WNW,290,0.0,0.0,96,0.00,,,0.00,Wunderground v.1.15,2013-10-05 11:19:00,
2013-10-05 06:25:00,73.5,72.3,29.89,SSE,153,0.0,0.0,96,0.00,,,0.00,Wunderground v.1.15,2013-10-05 11:25:00,
2013-10-05 06:35:00,73.3,72.1,29.89,SSW,198,0.0,0.0,96,0.00,,,0.00,Wunderground v.1.15,2013-10-05 11:35:00,
2013-10-05 06:45:00,73.2,72.0,29.89,SSW,198,0.0,0.0,96,0.00,,,0.00,Wunderground v.1.15,2013-10-05 11:45:00,
2013-10-05 06:54:00,73.1,72.2,29.90,ESE,103,0.0,0.0,97,0.00,,,0.00,Wunderground v.1.15,2013-10-05 11:54:00,
2013-10-05 07:00:00,73.1,72.2,29.90,East,94,0.0,0.0,97,0.00,,,0.00,Wunderground v.1.15,2013-10-05 12:00:00,
2013-10-05 07:09:00,73.2,72.3,29.90,WSW,246,1.0,1.0,97,0.00,,,0.00,Wunderground v.1.15,2013-10-05 12:09:00,
2013-10-05 07:14:00,73.3,72.4,29.90,SW,214,1.0,1.0,97,0.00,,,0.00,Wunderground v.1.15,2013-10-05 12:14:00,
2013-10-05 07:20:00,73.4,72.5,29.90,SW,222,1.0,1.0,97,0.00,,,0.00,Wunderground v.1.15,2013-10-05 12:20:00,
2013-10-05 07:29:00,73.6,72.7,29.90,SW,218,0.0,1.0,97,0.00,,,0.00,Wunderground v.1.15,2013-10-05 12:29:00,
2013-10-05 07:35:00,73.7,72.5,29.90,SW,215,0.0,1.0,96,0.00,,,0.00,Wunderground v.1.15,2013-10-05 12:35:00,
2013-10-05 07:44:00,73.5,72.3,29.90,WSW,239,0.0,0.0,96,0.00,,,0.00,Wunderground v.1.15,2013-10-05 12:44:00,
2013-10-05 07:50:00,73.4,72.2,29.90,ESE,120,0.0,1.0,96,0.00,,,0.00,Wunderground v.1.15,2013-10-05 12:50:00,
2013-10-05 08:00:00,73.4,72.2,29.90,ENE,65,1.0,1.0,96,0.00,,,0.00,Wunderground v.1.15,2013-10-05 13:00:00,
2013-10-05 08:09:00,73.6,72.1,29.90,SSW,206,0.0,1.0,95,0.00,,,0.00,Wunderground v.1.15,2013-10-05 13:09:00,
2013-10-05 08:15:00,73.7,72.2,29.90,West,280,0.0,1.0,95,0.00,,,0.00,Wunderground v.1.15,2013-10-05 13:15:00,
2013-10-05 08:25:00,73.9,72.4,29.91,ESE,103,1.0,1.0,95,0.00,,,0.00,Wunderground v.1.15,2013-10-05 13:25:00,
2013-10-05 08:34:00,74.3,72.8,29.91,West,276,0.0,1.0,95,0.00,,,0.00,Wunderground v.1.15,2013-10-05 13:34:00,
2013-10-05 08:40:00,74.6,73.1,29.91,WNW,283,0.0,0.0,95,0.00,,,0.00,Wunderground v.1.15,2013-10-05 13:40:00,
2013-10-05 08:49:00,74.8,73.0,29.91,West,270,1.0,1.0,94,0.00,,,0.00,Wunderground v.1.15,2013-10-05 13:49:00,
2013-10-05 08:54:00,75.0,72.8,29.91,ESE,123,1.0,1.0,93,0.00,,,0.00,Wunderground v.1.15,2013-10-05 13:54:00,
2013-10-05 09:05:00,75.3,72.8,29.92,SE,129,1.0,1.0,92,0.00,,,0.00,Wunderground v.1.15,2013-10-05 14:05:00,
2013-10-05 09:14:00,75.4,72.9,29.92,East,100,1.0,1.0,92,0.00,,,0.00,Wunderground v.1.15,2013-10-05 14:14:00,
2013-10-05 09:20:00,75.3,72.8,29.92,SSE,160,1.0,1.0,92,0.00,,,0.00,Wunderground v.1.15,2013-10-05 14:20:00,
2013-10-05 09:29:00,75.3,72.8,29.92,SSW,200,0.0,0.0,92,0.00,,,0.00,Wunderground v.1.15,2013-10-05 14:29:00,
2013-10-05 09:35:00,75.4,72.9,29.92,WSW,248,1.0,1.0,92,0.00,,,0.00,Wunderground v.1.15,2013-10-05 14:35:00,
2013-10-05 09:45:00,75.9,72.8,29.93,SW,232,1.0,3.0,90,0.00,,,0.00,Wunderground v.1.15,2013-10-05 14:45:00,
2013-10-05 09:54:00,76.9,73.1,29.93,ESE,107,1.0,1.0,88,0.00,,,0.00,Wunderground v.1.15,2013-10-05 14:54:00,
2013-10-05 10:00:00,77.4,72.9,29.93,SSW,195,1.0,1.0,86,0.00,,,0.00,Wunderground v.1.15,2013-10-05 15:00:00,
2013-10-05 10:10:00,77.8,72.9,29.93,SSE,167,1.0,1.0,85,0.00,,,0.00,Wunderground v.1.15,2013-10-05 15:10:00,
2013-10-05 10:19:00,77.5,72.6,29.94,East,94,1.0,1.0,85,0.00,,,0.00,Wunderground v.1.15,2013-10-05 15:19:00,
2013-10-05 10:25:00,77.3,72.1,29.94,SSW,207,1.0,1.0,84,0.00,,,0.00,Wunderground v.1.15,2013-10-05 15:25:00,
2013-10-05 10:35:00,77.7,72.5,29.94,WNW,285,1.0,1.0,84,0.00,,,0.00,Wunderground v.1.15,2013-10-05 15:35:00,
2013-10-05 10:44:00,78.8,72.5,29.94,SSE,148,2.0,2.0,81,0.00,,,0.00,Wunderground v.1.15,2013-10-05 15:44:00,
2013-10-05 10:50:00,79.1,72.8,29.95,East,85,1.0,1.0,81,0.00,,,0.00,Wunderground v.1.15,2013-10-05 15:50:00,
2013-10-05 11:00:00,79.9,72.0,29.96,WNW,290,1.0,1.0,77,0.00,,,0.00,Wunderground v.1.15,2013-10-05 16:00:00,
2013-10-05 11:09:00,80.5,72.2,29.96,WSW,253,1.0,1.0,76,0.00,,,0.00,Wunderground v.1.15,2013-10-05 16:09:00,
2013-10-05 11:15:00,80.5,72.2,29.96,SSW,208,1.0,1.0,76,0.00,,,0.00,Wunderground v.1.15,2013-10-05 16:15:00,
2013-10-05 11:24:00,80.9,71.8,29.96,West,259,1.0,1.0,74,0.00,,,0.00,Wunderground v.1.15,2013-10-05 16:24:00,
2013-10-05 11:30:00,81.1,71.6,29.96,NW,321,1.0,2.0,73,0.00,,,0.00,Wunderground v.1.15,2013-10-05 16:30:00,
2013-10-05 11:40:00,81.4,72.7,29.97,West,276,1.0,1.0,75,0.00,,,0.00,Wunderground v.1.15,2013-10-05 16:40:00,
2013-10-05 11:49:00,81.9,71.6,29.96,WNW,283,1.0,1.0,71,0.00,,,0.00,Wunderground v.1.15,2013-10-05 16:49:00,
2013-10-05 11:55:00,82.0,72.1,29.96,NNW,336,0.0,1.0,72,0.00,,,0.00,Wunderground v.1.15,2013-10-05 16:55:00,
2013-10-05 12:05:00,81.8,71.9,29.96,NW,324,1.0,3.0,72,0.00,,,0.00,Wunderground v.1.15,2013-10-05 17:05:00,
2013-10-05 12:14:00,82.2,71.9,29.95,ENE,75,2.0,2.0,71,0.00,,,0.00,Wunderground v.1.15,2013-10-05 17:14:00,
2013-10-05 12:20:00,82.5,71.7,29.96,South,176,1.0,1.0,70,0.00,,,0.00,Wunderground v.1.15,2013-10-05 17:20:00,
2013-10-05 12:30:00,82.2,71.0,29.95,SSE,167,1.0,1.0,69,0.00,,,0.00,Wunderground v.1.15,2013-10-05 17:30:00,
2013-10-05 12:39:00,83.5,70.9,29.95,SW,220,0.0,0.0,66,0.00,,,0.00,Wunderground v.1.15,2013-10-05 17:39:00,
2013-10-05 12:45:00,84.3,71.7,29.95,SSW,212,1.0,2.0,66,0.00,,,0.00,Wunderground v.1.15,2013-10-05 17:45:00,
2013-10-05 12:55:00,85.4,71.8,29.95,North,354,1.0,3.0,64,0.00,,,0.00,Wunderground v.1.15,2013-10-05 17:55:00,
2013-10-05 13:04:00,86.6,72.0,29.94,SW,222,1.0,1.0,62,0.00,,,0.00,Wunderground v.1.15,2013-10-05 18:04:00,
2013-10-05 13:10:00,86.7,71.6,29.94,West,263,1.0,1.0,61,0.00,,,0.00,Wunderground v.1.15,2013-10-05 18:10:00,
2013-10-05 13:20:00,87.6,71.0,29.94,WSW,257,1.0,2.0,58,0.00,,,0.00,Wunderground v.1.15,2013-10-05 18:20:00,
2013-10-05 13:29:00,86.3,71.7,29.94,North,11,1.0,1.0,62,0.00,,,0.00,Wunderground v.1.15,2013-10-05 18:29:00,
2013-10-05 13:34:00,85.3,70.8,29.93,NW,321,1.0,1.0,62,0.00,,,0.00,Wunderground v.1.15,2013-10-05 18:34:00,
2013-10-05 13:45:00,84.5,70.0,29.93,NW,325,1.0,1.0,62,0.00,,,0.00,Wunderground v.1.15,2013-10-05 18:45:00,
2013-10-05 13:54:00,84.9,70.4,29.92,NW,314,1.0,2.0,62,0.00,,,0.00,Wunderground v.1.15,2013-10-05 18:54:00,
2013-10-05 14:00:00,85.0,70.0,29.92,WSW,248,1.0,1.0,61,0.00,,,0.00,Wunderground v.1.15,2013-10-05 19:00:00,
2013-10-05 14:10:00,86.1,71.6,29.92,NE,49,1.0,2.0,62,0.00,,,0.00,Wunderground v.1.15,2013-10-05 19:10:00,
2013-10-05 14:19:00,86.1,71.1,29.92,ESE,120,1.0,1.0,61,0.00,,,0.00,Wunderground v.1.15,2013-10-05 19:19:00,
2013-10-05 14:25:00,86.7,70.7,29.91,SE,142,1.0,1.0,59,0.00,,,0.00,Wunderground v.1.15,2013-10-05 19:25:00,
2013-10-05 14:35:00,89.2,71.5,29.91,WSW,256,0.0,1.0,56,0.00,,,0.00,Wunderground v.1.15,2013-10-05 19:35:00,
2013-10-05 14:44:00,88.7,71.5,29.91,WSW,238,0.0,1.0,57,0.00,,,0.00,Wunderground v.1.15,2013-10-05 19:44:00,
2013-10-05 14:50:00,89.3,70.5,29.90,NW,318,0.0,1.0,54,0.00,,,0.00,Wunderground v.1.15,2013-10-05 19:50:00,
2013-10-05 15:00:00,88.3,69.5,29.90,NNE,23,1.0,1.0,54,0.00,,,0.00,Wunderground v.1.15,2013-10-05 20:00:00,
2013-10-05 15:10:00,89.1,69.7,29.90,WSW,245,1.0,1.0,53,0.00,,,0.00,Wunderground v.1.15,2013-10-05 20:10:00,
2013-10-05 15:19:00,89.3,69.9,29.89,ESE,104,1.0,1.0,53,0.00,,,0.00,Wunderground v.1.15,2013-10-05 20:19:00,
2013-10-05 15:25:00,89.3,68.8,29.89,NNW,336,1.0,1.0,51,0.00,,,0.00,Wunderground v.1.15,2013-10-05 20:25:00,
2013-10-05 15:34:00,89.1,69.2,29.89,NW,323,2.0,2.0,52,0.00,,,0.00,Wunderground v.1.15,2013-10-05 20:34:00,
2013-10-05 15:40:00,89.2,69.3,29.89,SE,146,2.0,2.0,52,0.00,,,0.00,Wunderground v.1.15,2013-10-05 20:40:00,
2013-10-05 15:50:00,89.3,69.9,29.88,NE,41,2.0,2.0,53,0.00,,,0.00,Wunderground v.1.15,2013-10-05 20:50:00,
2013-10-05 16:00:00,88.9,70.6,29.88,NE,51,2.0,2.0,55,0.00,,,0.00,Wunderground v.1.15,2013-10-05 21:00:00,
2013-10-05 16:09:00,88.1,70.4,29.88,East,100,1.0,1.0,56,0.00,,,0.00,Wunderground v.1.15,2013-10-05 21:09:00,
2013-10-05 16:15:00,87.8,70.1,29.88,SE,134,1.0,1.0,56,0.00,,,0.00,Wunderground v.1.15,2013-10-05 21:15:00,
2013-10-05 16:24:00,87.9,69.7,29.88,NW,312,1.0,1.0,55,0.00,,,0.00,Wunderground v.1.15,2013-10-05 21:24:00,
2013-10-05 16:30:00,87.9,71.3,29.88,East,96,1.0,1.0,58,0.00,,,0.00,Wunderground v.1.15,2013-10-05 21:30:00,
2013-10-05 16:40:00,88.0,71.4,29.88,SE,138,0.0,1.0,58,0.00,,,0.00,Wunderground v.1.15,2013-10-05 21:40:00,
2013-10-05 16:50:00,88.3,71.6,29.88,SE,137,0.0,0.0,58,0.00,,,0.00,Wunderground v.1.15,2013-10-05 21:50:00,
2013-10-05 16:59:00,88.3,70.6,29.88,SE,139,0.0,0.0,56,0.00,,,0.00,Wunderground v.1.15,2013-10-05 21:59:00,
2013-10-05 17:05:00,88.5,71.3,29.88,SE,138,0.0,0.0,57,0.00,,,0.00,Wunderground v.1.15,2013-10-05 22:05:00,
2013-10-05 17:14:00,87.9,69.7,29.87,SE,139,0.0,0.0,55,0.00,,,0.00,Wunderground v.1.15,2013-10-05 22:14:00,
2013-10-05 17:20:00,88.1,70.4,29.87,SE,136,0.0,0.0,56,0.00,,,0.00,Wunderground v.1.15,2013-10-05 22:20:00,
2013-10-05 17:30:00,88.2,70.0,29.87,SE,139,0.0,0.0,55,0.00,,,0.00,Wunderground v.1.15,2013-10-05 22:30:00,
2013-10-05 17:40:00,87.5,70.9,29.87,SE,138,0.0,0.0,58,0.00,,,0.00,Wunderground v.1.15,2013-10-05 22:40:00,
2013-10-05 17:49:00,86.9,69.8,29.87,NE,39,1.0,1.0,57,0.00,,,0.00,Wunderground v.1.15,2013-10-05 22:49:00,
2013-10-05 17:55:00,86.7,70.7,29.87,NE,39,0.0,1.0,59,0.00,,,0.00,Wunderground v.1.15,2013-10-05 22:55:00,
2013-10-05 18:05:00,86.3,69.8,29.88,NE,34,0.0,0.0,58,0.00,,,0.00,Wunderground v.1.15,2013-10-05 23:05:00,
2013-10-05 18:14:00,85.6,69.1,29.88,NNE,22,1.0,2.0,58,0.00,,,0.00,Wunderground v.1.15,2013-10-05 23:14:00,
2013-10-05 18:20:00,84.5,68.6,29.89,NNE,12,2.0,6.0,59,0.00,,,0.00,Wunderground v.1.15,2013-10-05 23:20:00,
2013-10-05 18:30:00,82.0,65.3,29.90,ENE,70,5.0,5.0,57,0.00,,,0.00,Wunderground v.1.15,2013-10-05 23:30:00,
2013-10-05 18:39:00,80.0,63.9,29.90,NNE,25,5.0,5.0,58,0.00,,,0.00,Wunderground v.1.15,2013-10-05 23:39:00,
2013-10-05 18:45:00,79.4,63.8,29.91,North,352,5.0,6.0,59,0.00,,,0.00,Wunderground v.1.15,2013-10-05 23:45:00,
2013-10-05 18:54:00,78.4,62.9,29.91,NE,56,3.0,4.0,59,0.00,,,0.00,Wunderground v.1.15,2013-10-05 23:54:00,
2013-10-05 18:59:00,77.9,62.4,29.92,NE,46,4.0,4.0,59,0.00,,,0.00,Wunderground v.1.15,2013-10-05 23:59:00,
2013-10-05 19:10:00,76.7,61.3,29.92,NNE,22,4.0,4.0,59,0.00,,,0.00,Wunderground v.1.15,2013-10-06 00:10:00,
2013-10-05 19:20:00,75.7,60.4,29.92,NE,54,6.0,6.0,59,0.00,,,0.00,Wunderground v.1.15,2013-10-06 00:20:00,
2013-10-05 19:29:00,74.9,60.1,29.93,ESE,114,4.0,4.0,60,0.00,,,0.00,Wunderground v.1.15,2013-10-06 00:29:00,
2013-10-05 19:35:00,74.5,59.7,29.93,NNE,22,4.0,5.0,60,0.00,,,0.00,Wunderground v.1.15,2013-10-06 00:35:00,
2013-10-05 19:44:00,73.8,59.0,29.94,WNW,298,4.0,4.0,60,0.00,,,0.00,Wunderground v.1.15,2013-10-06 00:44:00,
2013-10-05 19:49:00,73.5,58.8,29.94,NNE,27,4.0,4.0,60,0.00,,,0.00,Wunderground v.1.15,2013-10-06 00:49:00,
2013-10-05 20:00:00,72.8,58.1,29.95,North,6,4.0,4.0,60,0.00,,,0.00,Wunderground v.1.15,2013-10-06 01:00:00,
2013-10-05 20:09:00,72.3,57.6,29.95,North,358,3.0,5.0,60,0.00,,,0.00,Wunderground v.1.15,2013-10-06 01:09:00,
2013-10-05 20:15:00,72.1,57.9,29.95,NNW,340,4.0,5.0,61,0.00,,,0.00,Wunderground v.1.15,2013-10-06 01:15:00,
2013-10-05 20:24:00,71.5,57.3,29.96,NNE,20,3.0,3.0,61,0.00,,,0.00,Wunderground v.1.15,2013-10-06 01:24:00,
2013-10-05 20:30:00,71.3,57.2,29.96,NW,304,3.0,7.0,61,0.00,,,0.00,Wunderground v.1.15,2013-10-06 01:30:00,
2013-10-05 20:40:00,70.8,56.7,29.97,NNE,18,5.0,5.0,61,0.00,,,0.00,Wunderground v.1.15,2013-10-06 01:40:00,
2013-10-05 20:50:00,70.2,55.7,29.98,NNE,16,5.0,6.0,60,0.00,,,0.00,Wunderground v.1.15,2013-10-06 01:50:00,
2013-10-05 20:59:00,69.7,55.2,29.98,North,4,5.0,5.0,60,0.00,,,0.00,Wunderground v.1.15,2013-10-06 01:59:00,
2013-10-05 21:05:00,69.5,55.0,29.99,NE,35,5.0,5.0,60,0.00,,,0.00,Wunderground v.1.15,2013-10-06 02:05:00,
2013-10-05 21:14:00,68.9,54.0,29.99,NE,41,4.0,5.0,59,0.00,,,0.00,Wunderground v.1.15,2013-10-06 02:14:00,
2013-10-05 21:19:00,68.4,54.0,30.00,West,280,5.0,5.0,60,0.00,,,0.00,Wunderground v.1.15,2013-10-06 02:19:00,
2013-10-05 21:30:00,68.0,54.0,30.00,NNW,333,4.0,4.0,61,0.00,,,0.00,Wunderground v.1.15,2013-10-06 02:30:00,
2013-10-05 21:39:00,67.3,53.4,30.00,NNE,16,4.0,8.0,61,0.00,,,0.00,Wunderground v.1.15,2013-10-06 02:39:00,
2013-10-05 21:45:00,66.9,53.5,30.00,NNE,30,6.0,8.0,62,0.00,,,0.00,Wunderground v.1.15,2013-10-06 02:45:00,
2013-10-05 21:55:00,66.3,53.3,30.01,NW,325,5.0,6.0,63,0.00,,,0.00,Wunderground v.1.15,2013-10-06 02:55:00,
2013-10-05 22:04:00,65.8,52.9,30.01,WNW,302,6.0,6.0,63,0.00,,,0.00,Wunderground v.1.15,2013-10-06 03:04:00,
2013-10-05 22:09:00,65.4,52.5,30.01,NNW,343,6.0,6.0,63,0.00,,,0.00,Wunderground v.1.15,2013-10-06 03:09:00,
2013-10-05 22:20:00,65.0,52.1,30.01,NNW,342,6.0,8.0,63,0.00,,,0.00,Wunderground v.1.15,2013-10-06 03:20:00,
2013-10-05 22:30:00,64.6,51.3,30.01,NNE,13,6.0,6.0,62,0.00,,,0.00,Wunderground v.1.15,2013-10-06 03:30:00,
2013-10-05 22:39:00,64.3,51.0,30.02,East,94,6.0,6.0,62,0.00,,,0.00,Wunderground v.1.15,2013-10-06 03:39:00,
2013-10-05 22:45:00,64.2,50.9,30.01,North,9,6.0,6.0,62,0.00,,,0.00,Wunderground v.1.15,2013-10-06 03:45:00,
2013-10-05 22:55:00,64.0,50.3,30.02,East,86,4.0,5.0,61,0.00,,,0.00,Wunderground v.1.15,2013-10-06 03:55:00,
2013-10-05 23:04:00,63.9,48.8,30.02,North,352,5.0,5.0,58,0.00,,,0.00,Wunderground v.1.15,2013-10-06 04:04:00,
2013-10-05 23:10:00,63.9,47.9,30.03,North,8,6.0,6.0,56,0.00,,,0.00,Wunderground v.1.15,2013-10-06 04:10:00,
2013-10-05 23:14:00,63.9,47.9,30.03,NNE,18,5.0,6.0,56,0.00,,,0.00,Wunderground v.1.15,2013-10-06 04:14:00,
2013-10-05 23:19:00,63.9,47.9,30.03,ESE,113,5.0,5.0,56,0.00,,,0.00,Wunderground v.1.15,2013-10-06 04:19:00,
2013-10-05 23:25:00,63.9,47.4,30.03,NNW,345,4.0,5.0,55,0.00,,,0.00,Wunderground v.1.15,2013-10-06 04:25:00,
2013-10-05 23:35:00,63.9,47.4,30.03,NNE,13,4.0,6.0,55,0.00,,,0.00,Wunderground v.1.15,2013-10-06 04:35:00,
2013-10-05 23:44:00,63.9,46.9,30.03,NE,53,4.0,5.0,54,0.00,,,0.00,Wunderground v.1.15,2013-10-06 04:44:00,
2013-10-05 23:50:00,63.8,47.3,30.02,NE,44,4.0,4.0,55,0.00,,,0.00,Wunderground v.1.15,2013-10-06 04:50:00,
2013-10-05 23:55:00,63.8,46.8,30.02,NW,305,4.0,6.0,54,0.00,,,0.00,Wunderground v.1.15,2013-10-06 04:55:00,